| time (UTC) | temp C | wind direction | speed KPH | gust KPH | rain 1hr cm | rain 24hr cm | rain mn cm | humidity % | barometer mb |
| 20260505010114 | 18 | 226 | 1.6 | 1.6 | 0.00 | 0.00 | 0.00 | 70 | 1005.4 |
| 20260505005609 | 19 | 240 | 4.8 | 4.8 | 0.00 | 0.00 | 0.00 | 69 | 1005.3 |
| 20260505005102 | 20 | 199 | 3.2 | 3.2 | 0.00 | 0.00 | 0.00 | 68 | 1005.4 |
| 20260505004558 | 20 | 155 | 1.6 | 1.6 | 0.00 | 0.00 | 0.00 | 66 | 1005.3 |
| 20260505004055 | 20 | 233 | 1.6 | 3.2 | 0.00 | 0.00 | 0.00 | 65 | 1005.4 |
| 20260505003553 | 20 | 145 | 1.6 | 3.2 | 0.00 | 0.00 | 0.00 | 64 | 1005.5 |
| 20260505003050 | 21 | 184 | 3.2 | 3.2 | 0.00 | 0.00 | 0.00 | 64 | 1005.6 |
| 20260505002549 | 21 | 182 | 6.4 | 9.7 | 0.00 | 0.00 | 0.00 | 63 | 1005.5 |
| 20260505002049 | 21 | 247 | 4.8 | 4.8 | 0.00 | 0.00 | 0.00 | 62 | 1005.6 |
| 20260505001545 | 21 | 136 | 4.8 | 9.7 | 0.00 | 0.00 | 0.00 | 61 | 1005.2 |
| 20260505001043 | 21 | 210 | 4.8 | 8.0 | 0.00 | 0.00 | 0.00 | 62 | 1005.4 |
| 20260505000540 | 21 | 217 | 8.0 | 12.9 | 0.00 | 0.00 | 0.00 | 63 | 1005.5 |
| 20260505000038 | 21 | 196 | 1.6 | 3.2 | 0.00 | 0.00 | 0.00 | 64 | 1005.4 |
| 20260504235534 | 21 | 203 | 3.2 | 4.8 | 0.00 | 0.00 | 0.00 | 65 | 1005.5 |
| 20260504235031 | 21 | 247 | 1.6 | 3.2 | 0.00 | 0.00 | 0.00 | 66 | 1005.5 |
| 20260504234528 | 21 | 170 | 1.6 | 1.6 | 0.00 | 0.00 | 0.00 | 67 | 1005.5 |
| 20260504234025 | 21 | 218 | 6.4 | 9.7 | 0.00 | 0.00 | 0.00 | 66 | 1005.7 |
| 20260504233520 | 21 | 199 | 4.8 | 4.8 | 0.00 | 0.00 | 0.00 | 66 | 1005.4 |
| 20260504233017 | 21 | 189 | 3.2 | 4.8 | 0.00 | 0.00 | 0.00 | 66 | 1005.6 |
| 20260504232515 | 21 | 188 | 3.2 | 4.8 | 0.00 | 0.00 | 0.00 | 66 | 1005.5 |
| 20260504232012 | 22 | 155 | 1.6 | 1.6 | 0.00 | 0.00 | 0.00 | 65 | 1005.6 |
| 20260504231508 | 22 | 232 | 3.2 | 8.0 | 0.00 | 0.00 | 0.00 | 65 | 1005.8 |
| 20260504231004 | 22 | 188 | 4.8 | 4.8 | 0.00 | 0.00 | 0.00 | 64 | 1005.6 |
| 20260504230501 | 22 | 197 | 0.0 | 1.6 | 0.00 | 0.00 | 0.00 | 65 | 1005.9 |
| 20260504230000 | 22 | 174 | 1.6 | 3.2 | 0.00 | 0.00 | 0.00 | 64 | 1005.9 |
| 20260504225457 | 22 | 177 | 3.2 | 4.8 | 0.00 | 0.00 | 0.00 | 64 | 1005.9 |
| 20260504224954 | 22 | 173 | 3.2 | 3.2 | 0.00 | 0.00 | 0.00 | 64 | 1006.0 |
| 20260504224450 | 22 | 161 | 1.6 | 3.2 | 0.00 | 0.00 | 0.00 | 64 | 1006.1 |
| 20260504223947 | 22 | 163 | 4.8 | 4.8 | 0.00 | 0.00 | 0.00 | 64 | 1006.0 |
| 20260504223443 | 22 | 183 | 1.6 | 3.2 | 0.00 | 0.00 | 0.00 | 64 | 1006.1 |
| 20260504222939 | 22 | 213 | 4.8 | 9.7 | 0.00 | 0.00 | 0.00 | 63 | 1006.1 |
| 20260504222438 | 22 | 171 | 0.0 | 1.6 | 0.00 | 0.00 | 0.00 | 62 | 1006.2 |
| 20260504221935 | 22 | 237 | 0.0 | 1.6 | 0.00 | 0.00 | 0.00 | 61 | 1006.3 |
| 20260504221431 | 22 | 189 | 1.6 | 1.6 | 0.00 | 0.00 | 0.00 | 61 | 1006.2 |
| 20260504220928 | 22 | 229 | 3.2 | 3.2 | 0.00 | 0.00 | 0.00 | 62 | 1006.4 |
| 20260504220425 | 22 | 173 | 3.2 | 3.2 | 0.00 | 0.00 | 0.00 | 62 | 1006.4 |
| 20260504215922 | 22 | 216 | 6.4 | 9.7 | 0.00 | 0.00 | 0.00 | 61 | 1006.6 |
| 20260504215418 | 22 | 201 | 0.0 | 1.6 | 0.00 | 0.00 | 0.00 | 62 | 1006.6 |
| 20260504214915 | 22 | 258 | 8.0 | 12.9 | 0.00 | 0.00 | 0.00 | 61 | 1006.7 |
| 20260504214412 | 22 | 180 | 3.2 | 4.8 | 0.00 | 0.00 | 0.00 | 62 | 1006.7 |
| 20260504213908 | 22 | 199 | 1.6 | 1.6 | 0.00 | 0.00 | 0.00 | 62 | 1006.9 |
| 20260504213405 | 22 | 243 | 4.8 | 8.0 | 0.00 | 0.00 | 0.00 | 61 | 1006.8 |
| 20260504212902 | 22 | 234 | 8.0 | 12.9 | 0.00 | 0.00 | 0.00 | 61 | 1006.8 |
| 20260504212357 | 22 | 247 | 1.6 | 1.6 | 0.00 | 0.00 | 0.00 | 62 | 1006.9 |
| 20260504211855 | 23 | 239 | 4.8 | 9.7 | 0.00 | 0.00 | 0.00 | 61 | 1007.0 |
| 20260504211351 | 23 | 200 | 1.6 | 3.2 | 0.00 | 0.00 | 0.00 | 61 | 1006.9 |
| 20260504210849 | 23 | 227 | 3.2 | 3.2 | 0.00 | 0.00 | 0.00 | 60 | 1006.9 |
| 20260504210345 | 23 | 259 | 9.7 | 12.9 | 0.00 | 0.00 | 0.00 | 58 | 1007.1 |
| 20260504205843 | 23 | 207 | 1.6 | 4.8 | 0.00 | 0.00 | 0.00 | 62 | 1007.0 |
| 20260504205341 | 23 | 229 | 4.8 | 4.8 | 0.00 | 0.00 | 0.00 | 62 | 1006.8 |
| 20260504204838 | 23 | 219 | 8.0 | 17.7 | 0.00 | 0.00 | 0.00 | 61 | 1006.9 |
| 20260504204337 | 23 | 114 | 4.8 | 8.0 | 0.00 | 0.00 | 0.00 | 60 | 1006.9 |
| 20260504203836 | 22 | 176 | 4.8 | 4.8 | 0.00 | 0.00 | 0.00 | 64 | 1007.1 |
| 20260504203332 | 22 | 188 | 4.8 | 8.0 | 0.00 | 0.00 | 0.00 | 63 | 1006.9 |
| 20260504202828 | 23 | 251 | 4.8 | 9.7 | 0.00 | 0.00 | 0.00 | 63 | 1007.0 |
| 20260504202325 | 23 | 200 | 8.0 | 11.3 | 0.00 | 0.00 | 0.00 | 62 | 1007.3 |
| 20260504201822 | 22 | 195 | 1.6 | 3.2 | 0.00 | 0.00 | 0.00 | 63 | 1007.3 |
| 20260504201319 | 22 | 145 | 4.8 | 4.8 | 0.00 | 0.00 | 0.00 | 65 | 1007.2 |
| 20260504200817 | 22 | 198 | 4.8 | 4.8 | 0.00 | 0.00 | 0.00 | 66 | 1007.9 |
| 20260504200313 | 21 | 205 | 6.4 | 9.7 | 0.00 | 0.00 | 0.00 | 66 | 1008.1 |
| 20260504195809 | 21 | 177 | 1.6 | 3.2 | 0.00 | 0.00 | 0.00 | 68 | 1008.2 |
| 20260504195305 | 20 | 236 | 1.6 | 1.6 | 0.00 | 0.00 | 0.00 | 69 | 1008.1 |
| 20260504194802 | 20 | 159 | 1.6 | 3.2 | 0.00 | 0.00 | 0.00 | 69 | 1008.4 |
| 20260504194258 | 20 | 196 | 1.6 | 3.2 | 0.00 | 0.00 | 0.00 | 70 | 1008.7 |
| 20260504193754 | 20 | 197 | 3.2 | 3.2 | 0.00 | 0.00 | 0.00 | 70 | 1008.5 |
| 20260504193252 | 20 | 110 | 1.6 | 1.6 | 0.00 | 0.00 | 0.00 | 71 | 1008.6 |
| 20260504192750 | 20 | 192 | 1.6 | 1.6 | 0.00 | 0.00 | 0.00 | 69 | 1008.8 |
| 20260504192248 | 20 | 197 | 3.2 | 3.2 | 0.00 | 0.00 | 0.00 | 69 | 1008.6 |
| 20260504191747 | 20 | 227 | 3.2 | 4.8 | 0.00 | 0.00 | 0.00 | 68 | 1008.5 |
| 20260504191243 | 20 | 211 | 4.8 | 4.8 | 0.00 | 0.00 | 0.00 | 68 | 1008.6 |
| 20260504190739 | 20 | 269 | 4.8 | 8.0 | 0.00 | 0.00 | 0.00 | 67 | 1008.2 |
| 20260504190235 | 20 | 168 | 4.8 | 8.0 | 0.00 | 0.00 | 0.00 | 66 | 1008.2 |
| 20260504185732 | 20 | 221 | 8.0 | 12.9 | 0.00 | 0.00 | 0.00 | 67 | 1007.9 |
| 20260504185229 | 21 | 265 | 9.7 | 12.9 | 0.00 | 0.00 | 0.00 | 64 | 1007.6 |
| 20260504184725 | 21 | 308 | 8.0 | 14.5 | 0.00 | 0.00 | 0.00 | 65 | 1007.6 |
| 20260504184221 | 21 | 336 | 8.0 | 9.7 | 0.00 | 0.00 | 0.00 | 67 | 1007.5 |
| 20260504183717 | 21 | 220 | 4.8 | 8.0 | 0.00 | 0.00 | 0.00 | 68 | 1007.5 |
| 20260504183214 | 21 | 172 | 3.2 | 4.8 | 0.00 | 0.00 | 0.00 | 69 | 1007.9 |
| 20260504182712 | 21 | 185 | 3.2 | 3.2 | 0.00 | 0.00 | 0.00 | 69 | 1008.0 |
| 20260504182210 | 20 | 164 | 4.8 | 4.8 | 0.00 | 0.00 | 0.00 | 68 | 1007.9 |
| 20260504181707 | 20 | 167 | 0.0 | 1.6 | 0.00 | 0.00 | 0.00 | 69 | 1007.9 |
| 20260504181204 | 20 | 206 | 1.6 | 3.2 | 0.00 | 0.00 | 0.00 | 69 | 1007.6 |
| 20260504180703 | 20 | 111 | 1.6 | 1.6 | 0.00 | 0.00 | 0.00 | 68 | 1007.9 |
| 20260504180201 | 20 | 183 | 8.0 | 9.7 | 0.00 | 0.00 | 0.00 | 68 | 1007.5 |
| 20260504175658 | 20 | 147 | 4.8 | 4.8 | 0.00 | 0.00 | 0.00 | 67 | 1007.5 |
| 20260504175154 | 20 | 210 | 3.2 | 3.2 | 0.00 | 0.00 | 0.00 | 68 | 1007.9 |
| 20260504174653 | 20 | 248 | 4.8 | 8.0 | 0.00 | 0.00 | 0.00 | 68 | 1007.7 |
| 20260504174149 | 20 | 165 | 1.6 | 3.2 | 0.00 | 0.00 | 0.00 | 68 | 1008.0 |
| 20260504173646 | 20 | 185 | 4.8 | 8.0 | 0.00 | 0.00 | 0.00 | 67 | 1008.1 |
| 20260504173144 | 20 | 175 | 12.9 | 17.7 | 0.00 | 0.00 | 0.00 | 67 | 1007.9 |
| 20260504172640 | 19 | 167 | 8.0 | 14.5 | 0.00 | 0.00 | 0.00 | 68 | 1007.7 |
| 20260504172137 | 19 | 226 | 4.8 | 4.8 | 0.00 | 0.00 | 0.00 | 68 | 1008.2 |
| 20260504171633 | 19 | 143 | 3.2 | 4.8 | 0.00 | 0.00 | 0.00 | 68 | 1008.3 |
| 20260504171131 | 20 | 130 | 4.8 | 4.8 | 0.00 | 0.00 | 0.00 | 68 | 1008.2 |
| 20260504170626 | 20 | 166 | 3.2 | 3.2 | 0.00 | 0.00 | 0.00 | 67 | 1008.5 |
| 20260504170124 | 20 | 13 | 6.4 | 8.0 | 0.00 | 0.00 | 0.00 | 67 | 1008.4 |
| 20260504151004 | 18 | 157 | 3.2 | 3.2 | 0.00 | 0.00 | 0.00 | 71 | 1009.0 |
| 20260504150501 | 17 | 94 | 6.4 | 11.3 | 0.00 | 0.00 | 0.00 | 70 | 1008.9 |
| 20260504140927 | 15 | 198 | 1.6 | 3.2 | 0.00 | 0.00 | 0.00 | 75 | 1009.3 |
| 20260504140424 | 15 | 159 | 4.8 | 8.0 | 0.00 | 0.00 | 0.00 | 76 | 1009.3 |
| 20260504130349 | 13 | 145 | 3.2 | 4.8 | 0.00 | 0.00 | 0.00 | 76 | 1009.5 |
| 20260504120311 | 11 | 163 | 0.0 | 1.6 | 0.00 | 0.00 | 0.00 | 77 | 1009.4 |
| 20260504110235 | 9 | 196 | 3.2 | 4.8 | 0.00 | 0.00 | 0.00 | 79 | 1009.4 |
| 20260504100159 | 10 | 199 | 1.6 | 1.6 | 0.00 | 0.00 | 0.00 | 77 | 1009.4 |
| 20260504090117 | 10 | 214 | 1.6 | 3.2 | 0.00 | 0.00 | 0.00 | 76 | 1010.0 |
| 20260504081547 | 10 | 212 | 4.8 | 8.0 | 0.00 | 0.00 | 0.00 | 75 | 1010.1 |
| 20260504081043 | 9 | 192 | 3.2 | 4.8 | 0.00 | 0.00 | 0.00 | 76 | 1010.3 |
| 20260504080540 | 9 | 264 | 3.2 | 4.8 | 0.00 | 0.00 | 0.00 | 76 | 1010.4 |
| 20260504050347 | 10 | 168 | 1.6 | 1.6 | 0.00 | 0.00 | 0.00 | 72 | 1012.2 |
| 20260504045843 | 10 | 175 | 1.6 | 3.2 | 0.00 | 0.00 | 0.00 | 72 | 1011.8 |
| 20260504045338 | 10 | 124 | 1.6 | 3.2 | 0.00 | 0.00 | 0.00 | 71 | 1012.1 |
| 20260504044836 | 10 | 174 | 0.0 | 0.0 | 0.00 | 0.00 | 0.00 | 72 | 1012.1 |
| 20260504044333 | 10 | 240 | 3.2 | 4.8 | 0.00 | 0.00 | 0.00 | 72 | 1012.0 |
| 20260504043830 | 10 | 179 | 4.8 | 4.8 | 0.00 | 0.00 | 0.00 | 71 | 1012.1 |
| 20260504043327 | 10 | 164 | 3.2 | 3.2 | 0.00 | 0.00 | 0.00 | 72 | 1012.3 |
| 20260504042824 | 10 | 177 | 1.6 | 1.6 | 0.00 | 0.00 | 0.00 | 72 | 1012.4 |
| 20260504042321 | 11 | 175 | 0.0 | 1.6 | 0.00 | 0.00 | 0.00 | 72 | 1012.3 |
| 20260504041817 | 11 | 165 | 4.8 | 4.8 | 0.00 | 0.00 | 0.00 | 71 | 1012.4 |
| 20260504041313 | 10 | 152 | 1.6 | 1.6 | 0.00 | 0.00 | 0.00 | 72 | 1012.4 |
| 20260504040810 | 10 | 201 | 1.6 | 1.6 | 0.00 | 0.00 | 0.00 | 72 | 1012.6 |
| 20260504040307 | 10 | 167 | 1.6 | 1.6 | 0.00 | 0.00 | 0.00 | 73 | 1012.7 |
| 20260504035803 | 10 | 178 | 0.0 | 0.0 | 0.00 | 0.00 | 0.00 | 73 | 1012.5 |
| 20260504035300 | 10 | 193 | 3.2 | 3.2 | 0.00 | 0.00 | 0.00 | 73 | 1012.6 |
| 20260504034757 | 10 | 199 | 3.2 | 3.2 | 0.00 | 0.00 | 0.00 | 74 | 1012.7 |
| 20260504034255 | 10 | 181 | 1.6 | 1.6 | 0.00 | 0.00 | 0.00 | 73 | 1012.8 |
| 20260504033752 | 10 | 184 | 0.0 | 1.6 | 0.00 | 0.00 | 0.00 | 73 | 1012.9 |
| 20260504033250 | 10 | 179 | 0.0 | 1.6 | 0.00 | 0.00 | 0.00 | 72 | 1012.7 |
| 20260504032746 | 10 | 179 | 1.6 | 1.6 | 0.00 | 0.00 | 0.00 | 71 | 1012.6 |
| 20260504032243 | 10 | 212 | 1.6 | 1.6 | 0.00 | 0.00 | 0.00 | 71 | 1012.8 |
| 20260504031740 | 10 | 180 | 1.6 | 1.6 | 0.00 | 0.00 | 0.00 | 70 | 1012.7 |
| 20260504031238 | 11 | 214 | 1.6 | 3.2 | 0.00 | 0.00 | 0.00 | 70 | 1012.6 |
| 20260504030733 | 11 | 175 | 1.6 | 3.2 | 0.00 | 0.00 | 0.00 | 69 | 1013.0 |
| 20260504030231 | 11 | 199 | 3.2 | 3.2 | 0.00 | 0.00 | 0.00 | 68 | 1013.1 |
| 20260504025727 | 11 | 190 | 1.6 | 1.6 | 0.00 | 0.00 | 0.00 | 69 | 1013.1 |
| 20260504025224 | 11 | 171 | 1.6 | 1.6 | 0.00 | 0.00 | 0.00 | 70 | 1012.8 |
| 20260504024721 | 11 | 203 | 1.6 | 1.6 | 0.00 | 0.00 | 0.00 | 69 | 1013.2 |
| 20260504024217 | 11 | 186 | 1.6 | 1.6 | 0.00 | 0.00 | 0.00 | 66 | 1013.1 |
| 20260504023714 | 11 | 198 | 1.6 | 3.2 | 0.00 | 0.00 | 0.00 | 65 | 1013.1 |
| 20260504023210 | 11 | 189 | 1.6 | 3.2 | 0.00 | 0.00 | 0.00 | 67 | 1012.9 |
| 20260504022707 | 11 | 175 | 1.6 | 3.2 | 0.00 | 0.00 | 0.00 | 67 | 1012.9 |
| 20260504022203 | 11 | 153 | 3.2 | 3.2 | 0.00 | 0.00 | 0.00 | 68 | 1013.1 |
| 20260504021701 | 11 | 161 | 3.2 | 3.2 | 0.00 | 0.00 | 0.00 | 67 | 1012.8 |
| 20260504021157 | 11 | 173 | 3.2 | 3.2 | 0.00 | 0.00 | 0.00 | 68 | 1013.1 |
| 20260504020654 | 11 | 166 | 3.2 | 3.2 | 0.00 | 0.00 | 0.00 | 68 | 1013.0 |
| 20260504020150 | 11 | 164 | 3.2 | 3.2 | 0.00 | 0.00 | 0.00 | 68 | 1013.1 |
| 20260504015647 | 11 | 158 | 1.6 | 3.2 | 0.00 | 0.00 | 0.00 | 69 | 1013.0 |
| 20260504015143 | 10 | 170 | 0.0 | 0.0 | 0.00 | 0.00 | 0.00 | 72 | 1013.0 |
| 20260504014639 | 11 | 178 | 0.0 | 1.6 | 0.00 | 0.00 | 0.00 | 74 | 1013.1 |
| 20260504014136 | 10 | 141 | 1.6 | 3.2 | 0.00 | 0.00 | 0.00 | 75 | 1013.0 |
| 20260504013634 | 10 | 177 | 0.0 | 0.0 | 0.00 | 0.00 | 0.00 | 74 | 1013.0 |
| 20260504013131 | 10 | 175 | 0.0 | 0.0 | 0.00 | 0.00 | 0.00 | 75 | 1012.8 |
| 20260504012628 | 10 | 175 | 0.0 | 0.0 | 0.00 | 0.00 | 0.00 | 75 | 1013.0 |
| 20260504012126 | 10 | 176 | 0.0 | 0.0 | 0.00 | 0.00 | 0.00 | 75 | 1013.0 |
| 20260504011622 | 10 | 176 | 0.0 | 0.0 | 0.00 | 0.00 | 0.00 | 75 | 1013.2 |
| 20260504011119 | 10 | 167 | 0.0 | 0.0 | 0.00 | 0.00 | 0.00 | 74 | 1012.9 |
| 20260504010615 | 10 | 164 | 0.0 | 0.0 | 0.00 | 0.00 | 0.00 | 74 | 1012.8 |